Theta_e
347 347 347 348 345 337 334 341 343 342 342 339 335 333 327 321 320 320 323 329 336 339 339 339 338 337 335 334 333 331 330 331 333 334 332 332 331 330 331 331 333 333 333 334 334 336 332 325 327 331 330 332 336 341 343 340 334 327 329 334 335 334 333 334 334 335 335 334 334 334 334 334 335 334 333 331 329 331 332 333 332 333 333 333 332
346 347 348 347 347 341 334 338 343 343 343 340 335 333 326 320 320 320 322 327 333 338 339 339 339 339 338 337 336 334 330 327 330 334 334 333 333 332 332 333 333 334 334 334 336 335 332 333 338 335 331 335 339 342 338 330 324 322 327 330 333 332 331 334 334 334 334 333 333 333 333 334 334 333 333 331 329 329 330 332 332 333 333 333 332
346 348 347 348 348 345 340 341 344 344 344 341 335 333 328 321 320 319 321 325 329 335 339 338 339 340 339 339 338 336 333 329 328 331 335 335 335 335 335 335 335 335 335 335 336 334 335 340 340 337 336 340 343 338 329 324 324 324 325 325 326 328 330 333 333 333 333 333 333 333 333 333 333 333 333 332 330 329 329 330 332 333 332 332 331
346 347 347 349 347 347 345 343 344 344 345 342 336 334 330 323 321 319 319 323 325 329 335 337 338 340 340 340 340 338 335 333 330 330 333 336 337 337 337 337 336 336 336 336 335 335 339 341 341 341 341 343 340 331 325 326 328 329 330 329 328 328 329 329 329 330 332 332 332 332 332 333 333 333 333 333 333 332 332 332 332 332 332 332 331
345 347 347 348 347 347 346 345 345 344 345 342 337 335 331 324 322 320 319 321 323 324 328 335 337 339 340 339 340 339 337 335 334 332 332 336 337 337 338 337 337 337 338 338 337 339 341 341 342 342 342 342 333 325 327 329 331 333 333 332 332 331 330 329 328 328 328 329 330 332 333 333 333 333 333 333 332 331 332 332 333 332 332 332 332
345 346 347 347 347 347 346 346 345 344 345 343 338 336 332 325 323 321 319 320 322 319 319 330 337 338 339 340 340 340 339 337 334 332 333 335 335 335 337 337 337 338 339 340 339 341 341 342 342 342 343 338 327 326 330 331 334 334 334 334 333 333 333 332 332 330 328 327 329 331 332 332 332 332 332 332 332 332 332 332 332 332 332 332 332
344 345 346 347 347 347 347 346 345 345 345 344 339 337 334 325 323 322 320 320 319 316 315 323 335 338 337 339 339 341 340 338 334 332 334 336 336 336 338 339 339 339 340 340 341 342 341 342 342 343 343 333 326 330 332 333 334 334 335 335 334 334 334 334 334 333 331 330 330 331 331 331 332 333 333 333 333 334 333 332 332 332 332 332 331
345 345 346 346 347 347 347 346 345 345 345 345 339 337 336 326 322 322 320 321 319 316 314 316 330 336 336 337 338 339 340 339 336 334 334 336 338 338 339 340 340 340 341 342 342 342 342 342 342 343 340 330 328 332 332 333 334 334 335 335 335 335 335 336 336 335 334 332 331 331 332 333 333 333 334 334 334 334 333 333 332 331 331 331 331
346 345 345 346 346 346 347 346 345 346 346 345 340 337 337 330 321 321 321 323 321 316 313 312 323 329 331 335 337 337 339 340 338 337 336 336 337 338 338 339 340 340 341 342 342 342 342 342 342 343 339 329 329 333 332 334 334 335 336 335 336 336 336 336 336 335 334 333 331 331 332 333 334 334 334 334 334 332 331 332 330 329 329 330 330
345 345 345 345 346 347 346 346 346 346 345 344 340 337 338 334 324 320 321 324 324 318 314 313 316 322 327 330 334 337 338 340 340 339 337 336 337 336 337 337 338 340 341 341 341 342 342 342 342 342 341 330 330 334 333 334 334 335 335 335 336 337 337 336 335 335 335 334 332 331 330 332 333 333 334 333 332 330 329 330 330 330 330 330 331
344 345 345 345 346 346 346 346 346 346 345 344 342 338 338 337 328 320 320 324 326 321 316 315 313 320 326 325 329 335 336 338 340 339 338 338 337 336 336 336 336 338 340 340 340 342 341 342 342 341 341 333 328 332 334 334 334 335 335 336 336 337 337 336 336 335 335 335 334 332 330 330 331 333 333 331 330 329 330 331 331 331 331 331 331
345 344 345 345 345 346 346 346 345 345 345 344 342 339 338 338 334 323 319 322 327 325 318 318 315 320 327 323 323 330 332 334 337 338 338 337 337 337 337 336 336 337 339 340 340 341 341 341 341 341 341 337 331 329 331 332 333 335 335 336 337 337 336 336 336 336 336 335 334 334 332 331 331 332 331 330 330 330 331 332 332 332 332 332 331
344 344 345 345 345 345 346 346 346 345 344 345 343 339 338 338 337 330 322 319 324 328 322 320 319 321 328 326 320 322 326 327 331 336 337 337 337 337 337 337 336 336 337 339 340 339 340 340 341 341 340 341 337 329 327 330 333 334 335 336 336 336 336 336 335 336 335 335 335 335 334 333 332 331 330 330 330 332 333 332 333 333 332 331 331
342 343 344 345 345 345 345 346 345 345 344 344 343 341 339 338 338 335 330 322 320 327 327 323 322 323 327 325 320 318 321 322 323 330 334 336 337 336 336 336 336 336 335 337 338 339 339 340 340 340 340 341 340 335 330 330 332 334 335 336 337 337 337 336 336 336 336 336 336 336 335 334 334 332 331 331 331 332 333 332 331 332 332 331 331
340 341 342 344 345 344 345 345 345 345 344 343 343 342 339 338 338 338 337 331 322 322 327 327 324 326 328 324 323 320 319 320 320 321 326 330 335 335 334 334 335 334 334 334 335 337 337 339 339 339 340 339 340 340 335 332 332 333 334 336 338 337 337 337 337 337 337 337 337 337 336 334 334 334 333 333 334 333 333 331 330 330 330 330 331
339 339 341 343 345 344 344 344 344 344 344 343 342 342 341 339 339 339 339 338 332 323 323 328 326 328 331 327 325 325 323 322 321 319 318 321 327 331 331 331 332 332 334 334 333 334 334 335 338 339 339 339 339 339 338 336 334 332 333 336 338 338 337 337 337 338 338 337 337 338 337 335 335 335 335 335 335 335 334 333 332 331 330 330 330
339 338 339 341 343 344 343 343 344 343 344 343 342 342 341 340 340 339 338 340 339 332 324 325 327 328 333 333 328 327 328 327 325 321 318 317 319 324 327 330 331 330 332 333 332 332 331 332 335 337 338 338 339 339 339 339 337 334 332 335 336 337 338 338 338 338 338 338 338 338 337 336 335 336 336 337 336 336 335 335 335 333 333 332 330
340 339 338 340 341 342 343 343 343 343 343 343 342 342 341 341 342 339 338 339 341 339 332 325 324 327 332 335 332 329 329 330 329 326 321 316 316 319 323 328 330 330 330 330 331 332 331 332 333 336 337 337 338 338 338 338 338 336 334 334 335 336 337 338 338 338 338 337 337 337 337 337 336 336 337 337 336 336 336 336 335 335 335 334 332
340 340 339 339 340 340 341 342 342 342 342 342 342 341 340 340 342 340 338 338 340 341 338 332 325 324 329 335 335 332 330 331 332 331 325 318 315 317 320 324 328 328 331 331 329 330 331 332 332 333 336 337 337 337 337 337 337 337 335 334 334 334 336 338 338 338 337 337 337 337 337 337 337 337 337 337 336 336 335 335 335 335 335 335 334
339 340 340 339 339 340 340 341 341 342 342 341 342 341 339 338 339 341 339 337 339 341 340 338 333 325 324 330 334 334 332 332 332 333 330 322 316 315 317 321 323 324 329 331 327 327 328 329 331 331 333 335 336 336 336 336 336 336 335 335 334 334 335 337 337 337 337 336 336 335 336 336 337 337 336 336 336 335 335 335 335 335 335 334 335
341 339 340 340 339 340 340 341 341 341 341 340 341 340 339 338 337 340 340 339 340 341 340 340 338 332 325 327 331 333 334 334 333 334 333 327 320 315 315 318 320 320 324 328 328 327 326 326 328 329 331 332 334 334 334 334 334 334 334 334 335 335 335 336 336 335 335 335 334 335 335 334 335 335 335 336 336 335 335 335 335 335 335 335 335
340 340 340 339 339 340 340 340 341 341 340 340 340 341 340 338 338 338 339 341 341 341 341 340 340 338 332 330 330 329 333 336 334 334 334 331 325 318 315 314 317 320 320 325 329 328 327 327 326 327 329 331 332 332 333 333 333 333 334 334 334 335 334 335 335 335 334 334 334 334 334 333 333 333 333 333 333 334 334 335 334 334 334 334 334
338 340 340 340 339 339 339 339 341 341 341 340 340 341 339 338 338 337 337 340 341 340 340 341 340 340 337 334 332 329 330 336 336 335 335 334 329 322 317 314 315 319 319 321 327 327 328 329 326 327 329 330 331 331 331 332 333 333 334 334 334 334 334 334 334 334 333 333 333 332 332 332 332 332 331 331 331 330 332 334 333 332 332 332 332
336 337 338 340 339 339 339 339 340 340 340 340 340 340 339 338 337 336 336 338 340 339 339 341 340 340 340 337 335 332 331 335 337 337 336 335 332 325 319 315 314 317 318 319 324 326 327 329 327 327 328 329 329 329 330 330 331 332 333 333 333 334 334 333 333 332 332 331 331 331 331 331 332 331 331 330 329 328 329 332 332 331 330 330 330
334 335 336 339 339 339 338 338 339 339 339 339 340 339 338 338 337 337 336 337 338 337 337 339 339 340 340 338 336 335 334 335 337 337 336 336 334 329 323 317 314 315 316 316 320 323 325 326 327 326 325 325 324 325 328 330 329 330 330 331 332 333 333 333 332 331 331 330 330 330 330 330 331 331 330 330 329 328 327 329 330 329 328 328 328
332 334 335 336 338 338 337 336 335 336 337 338 336 333 334 336 336 337 336 336 337 336 335 337 338 338 339 338 336 336 335 336 337 337 337 336 335 333 328 321 315 313 312 313 316 317 319 321 323 322 320 319 318 320 324 327 328 328 328 329 329 330 332 332 332 331 330 330 330 330 330 330 330 330 330 330 329 328 327 326 327 328 327 326 325
331 332 334 335 337 338 338 337 335 334 334 333 332 330 331 332 333 335 336 336 336 335 334 334 335 336 337 338 337 337 337 337 336 337 337 336 335 335 332 325 318 315 312 312 313 314 314 316 317 317 317 317 317 316 318 321 326 327 327 327 327 328 329 331 331 331 330 330 330 329 328 329 329 329 330 330 330 329 326 325 325 325 324 324 324
334 333 333 334 336 338 339 339 338 337 336 334 333 334 334 333 333 333 334 335 335 335 333 332 332 332 334 336 338 337 338 338 336 337 337 335 335 336 334 329 322 317 315 313 312 312 313 315 317 320 320 319 318 318 319 322 325 325 325 325 325 326 327 328 329 330 330 329 330 329 327 327 328 329 329 329 329 328 326 325 323 322 323 323 325
336 336 333 333 334 336 338 339 340 339 338 338 338 337 337 337 336 335 334 333 332 332 331 330 330 330 330 332 336 338 338 338 337 337 337 335 335 336 335 333 327 320 317 316 314 314 317 320 322 325 325 324 323 323 325 325 324 324 324 325 325 325 326 327 327 328 328 328 328 327 326 325 325 326 326 327 326 324 323 323 321 322 324 326 327
335 338 335 332 331 334 337 338 339 339 337 337 339 339 337 338 339 337 336 335 333 331 330 329 330 330 330 330 332 335 337 338 337 337 337 336 336 336 336 335 332 324 319 318 317 319 324 326 326 328 328 327 327 326 326 326 326 326 325 324 325 325 324 324 324 324 322 321 320 321 321 320 320 320 321 321 322 323 324 322 319 319 323 325 326
330 336 337 332 329 333 335 336 338 338 337 336 336 337 335 335 336 336 336 335 334 333 333 332 330 330 331 332 331 331 336 338 338 337 337 337 336 336 336 335 333 329 324 320 321 325 327 329 329 329 329 329 328 327 327 327 327 327 327 326 325 325 325 325 324 322 320 319 320 322 323 323 323 323 324 324 326 327 326 322 316 315 319 322 323
324 332 337 335 333 335 335 334 336 337 337 337 335 335 334 333 334 334 334 334 334 333 333 333 333 332 332 332 329 329 335 339 338 337 336 336 337 336 336 335 334 333 329 322 323 328 329 329 330 330 329 329 328 328 328 328 328 328 328 328 327 326 327 327 326 325 324 323 325 327 328 328 328 328 328 328 329 329 328 324 317 314 315 318 319
321 326 335 338 337 336 336 335 335 336 337 336 336 336 335 335 334 334 335 335 333 330 330 332 333 334 334 332 330 329 334 338 339 338 337 337 337 337 336 335 334 334 332 326 325 329 330 330 330 330 330 330 329 329 328 329 328 328 328 328 328 327 327 327 328 327 327 326 327 328 329 329 329 329 329 329 329 329 330 328 325 321 320 321 322
322 327 332 336 337 337 336 336 335 335 336 335 336 335 335 335 335 335 335 334 331 328 329 329 330 331 332 331 330 330 334 338 338 337 337 337 336 336 335 335 335 334 333 330 328 329 331 331 331 330 330 330 329 329 329 329 329 328 328 328 328 327 328 328 328 328 328 327 327 328 329 330 330 330 331 330 330 330 330 330 330 329 328 328 328
321 330 334 335 337 337 337 336 336 335 335 335 334 334 334 334 335 335 334 334 333 332 333 332 330 330 329 327 327 329 333 336 336 336 336 335 335 335 335 335 335 336 334 333 332 331 330 330 330 330 330 330 330 329 329 329 329 329 328 328 328 328 328 328 328 328 328 328 329 329 330 330 330 331 331 331 331 331 331 331 331 331 331 331 331
317 326 333 336 336 337 336 335 334 334 335 335 334 334 334 334 334 334 334 335 335 336 336 336 335 334 333 331 330 331 334 336 336 337 335 334 334 335 334 334 335 336 335 334 334 333 330 330 330 329 330 330 329 329 329 329 329 329 329 328 328 328 328 328 328 329 329 330 330 330 330 330 331 331 331 332 332 332 332 332 332 332 332 332 332
315 319 326 332 335 336 336 335 332 331 333 333 334 334 333 333 334 333 334 334 334 335 336 336 336 337 337 337 337 337 337 338 338 337 336 335 335 334 334 335 335 336 336 334 335 334 331 330 330 329 329 329 329 329 329 329 329 329 329 329 328 327 327 328 328 329 330 330 331 331 331 331 331 332 332 332 332 333 332 332 332 332 332 332 332
319 318 321 326 330 333 332 332 332 332 334 334 334 333 330 331 332 332 333 333 333 334 334 335 335 335 337 337 338 338 338 338 337 337 337 337 337 335 335 336 335 335 336 335 335 335 331 330 330 330 329 329 329 329 329 329 329 328 328 327 327 326 326 327 328 328 329 330 330 331 332 332 332 332 332 333 333 333 333 332 332 332 332 331 331
321 320 320 322 325 327 325 324 325 327 330 333 334 333 332 332 333 333 333 333 333 333 333 334 334 334 334 335 335 336 337 337 336 336 337 337 336 335 336 336 335 336 336 335 336 335 332 331 331 330 330 329 329 328 328 328 327 327 326 325 326 326 326 327 327 327 328 328 328 329 330 331 332 332 332 333 333 333 333 333 333 332 331 331 331
320 321 320 320 321 322 321 321 320 320 322 328 334 335 334 334 333 333 333 331 331 331 331 332 333 333 333 333 333 334 335 336 336 336 336 336 336 335 335 336 336 336 337 336 336 335 334 333 333 332 331 330 329 329 328 328 328 327 326 326 327 327 327 327 328 327 328 327 327 328 328 329 330 331 332 332 333 333 333 333 333 332 332 332 332
320 319 320 319 319 319 318 318 318 318 318 321 328 332 334 334 333 333 330 329 330 330 329 327 329 331 333 333 332 332 333 335 336 336 336 336 335 335 335 336 337 337 337 337 336 335 334 334 333 333 332 331 330 330 330 329 328 327 327 327 327 327 327 328 328 328 328 329 329 329 329 329 330 330 331 332 333 333 333 333 333 332 332 332 332
319 318 318 316 316 315 313 312 312 316 318 318 321 324 327 330 331 330 328 328 329 330 328 324 324 327 330 333 333 332 332 332 334 335 335 335 335 335 335 335 336 336 336 336 336 335 334 334 333 333 332 332 331 331 330 329 327 326 326 326 326 326 326 326 327 327 327 328 329 329 330 330 330 330 331 332 333 333 332 332 332 332 332 332 333
318 318 317 316 314 312 310 309 308 312 316 318 321 323 322 323 325 327 327 327 327 328 329 327 326 325 326 331 333 333 333 332 332 333 333 333 333 334 335 335 335 335 335 335 335 335 334 334 333 333 332 331 331 331 331 329 327 326 326 326 326 327 327 325 325 326 326 326 327 328 329 330 331 331 331 332 332 333 333 332 332 331 332 332 332
310 313 314 314 313 311 309 309 308 308 312 316 321 325 326 324 324 324 325 327 328 327 328 330 331 330 328 330 332 333 332 330 330 332 333 332 331 332 333 335 334 334 334 335 335 334 334 334 333 333 332 331 331 330 330 329 327 326 327 327 325 327 330 326 324 327 327 327 328 328 329 329 330 331 332 332 332 332 332 331 331 331 332 331 330
303 305 307 309 310 310 309 309 308 308 309 312 317 323 328 329 328 327 326 327 329 329 329 330 331 332 332 331 332 333 331 327 328 332 332 332 332 331 332 334 334 334 333 334 334 334 334 334 333 333 332 331 329 329 329 327 327 327 326 327 326 327 330 326 324 327 327 327 328 328 329 329 330 330 331 331 331 332 332 332 332 331 331 330 330
302 303 303 304 305 307 308 309 308 307 308 310 313 318 325 330 330 329 329 328 328 328 329 330 331 331 332 332 332 332 331 329 330 332 332 332 332 331 331 333 333 333 333 333 333 334 333 333 333 333 332 331 329 327 327 326 326 327 326 327 327 326 326 325 326 329 328 326 327 327 328 328 328 329 329 329 330 330 330 330 330 330 329 328 328
305 305 305 306 306 307 308 309 309 309 309 311 312 314 319 325 328 329 328 327 327 327 327 328 330 330 330 330 330 331 331 331 331 330 331 331 332 332 331 332 332 332 332 332 332 332 332 331 331 330 330 329 329 327 326 326 325 323 324 324 322 321 323 324 327 329 329 328 324 323 325 325 325 326 326 327 328 327 327 327 328 327 325 324 323
305 305 305 306 307 307 308 309 310 311 311 313 315 315 316 319 323 326 327 326 325 325 325 326 328 329 329 328 328 329 330 330 330 330 331 331 331 332 329 327 330 332 332 331 331 330 330 329 329 329 328 328 328 327 326 325 323 319 317 317 316 317 318 319 323 325 328 329 323 320 321 321 320 320 320 322 324 325 325 325 324 322 320 318 317
301 302 303 303 304 304 304 305 305 306 306 307 310 312 315 317 320 323 324 325 324 324 324 324 326 327 327 327 327 328 328 329 329 329 330 330 330 331 326 325 329 330 329 328 329 328 327 327 327 327 328 328 327 327 325 323 322 318 314 314 315 316 315 315 316 317 321 326 325 321 319 318 318 315 314 316 318 320 321 320 319 317 315 313 312
298 300 302 302 303 303 303 303 303 303 303 304 304 306 309 314 318 321 322 322 322 323 323 323 325 325 325 326 326 327 327 327 327 327 329 329 329 329 326 326 329 327 325 324 325 325 324 323 321 320 322 323 323 323 320 318 317 315 313 314 316 316 315 316 316 313 314 319 322 319 316 317 317 314 313 313 314 316 316 315 314 312 311 310 309
296 297 298 299 300 301 301 302 303 303 303 303 303 303 305 308 312 317 320 321 321 322 322 322 323 323 324 325 325 326 327 326 326 326 327 327 327 327 325 326 327 324 322 320 321 324 324 322 319 317 317 317 316 316 315 313 312 312 312 311 312 313 313 315 315 313 312 316 320 320 315 315 314 311 311 313 312 313 313 312 311 309 308 308 308
Wind_Speed
27 27 28 29 27 28 27 26 24 25 25 25 27 26 24 22 21 20 21 20 19 18 18 17 16 17 17 16 17 19 20 20 20 19 19 18 17 17 16 15 16 16 15 14 13 12 13 15 16 16 15 15 14 15 15 14 13 13 14 15 16 17 18 19 20 19 18 18 17 17 17 17 16 16 15 16 18 19 20 20 18 17 17 16 16
29 27 28 29 28 28 28 26 25 26 25 26 28 26 24 23 21 20 20 20 19 18 18 17 15 15 16 16 17 18 19 20 21 20 19 18 18 17 17 16 16 16 16 14 13 13 15 16 16 16 16 16 15 15 14 14 14 15 15 16 16 16 18 19 20 19 18 18 17 16 16 16 16 15 15 15 17 17 18 19 17 16 16 15 15
27 27 28 28 28 28 28 27 26 26 26 26 28 27 25 23 21 20 20 19 18 18 19 18 15 14 14 15 16 16 18 20 21 21 19 18 18 17 17 17 17 17 16 14 14 15 17 17 16 17 17 17 17 16 15 16 18 20 20 19 18 18 19 19 19 19 18 18 18 18 16 15 15 15 15 15 16 16 16 17 16 15 15 14 14
27 27 27 27 28 28 28 27 26 27 26 27 29 27 26 24 22 20 20 18 17 18 20 20 16 14 14 15 15 16 17 19 20 21 20 18 17 17 17 17 17 16 15 15 15 17 17 17 17 17 18 18 18 17 18 20 23 25 24 23 22 21 21 19 18 18 18 18 18 19 18 16 16 16 15 15 15 15 14 14 15 14 14 14 14
29 27 27 27 27 27 27 27 27 27 27 27 29 28 26 25 23 21 20 18 16 18 19 20 19 15 13 14 14 15 17 19 19 21 20 18 18 17 18 18 17 16 15 15 16 17 17 17 17 18 19 18 18 18 19 22 24 25 25 24 23 22 21 20 19 17 15 15 17 19 18 16 16 15 14 15 15 14 14 14 14 13 14 14 14
31 28 27 26 26 27 27 27 27 27 27 27 29 28 27 26 24 21 20 19 16 17 18 20 21 16 13 13 14 15 17 18 19 20 20 19 19 19 19 19 18 17 17 16 16 16 16 16 16 18 19 19 19 19 21 23 23 22 22 22 22 20 20 19 18 16 15 14 16 18 17 16 16 15 14 15 15 14 13 13 13 12 12 12 12
32 29 27 26 26 27 27 27 27 28 28 28 29 29 27 26 25 23 21 19 16 16 16 19 20 17 16 14 14 14 16 19 19 20 20 19 19 19 18 18 17 17 17 16 15 14 15 15 17 18 19 20 20 21 23 23 22 21 20 19 19 18 17 15 15 14 15 14 15 17 16 15 15 14 13 14 14 12 12 12 11 11 11 11 12
32 30 27 27 26 27 26 27 28 28 28 28 30 30 27 27 26 24 22 20 17 16 15 18 18 18 19 17 16 14 15 18 18 19 19 19 18 17 16 15 16 16 15 14 14 14 14 15 17 18 20 21 21 22 22 22 21 19 17 16 16 14 12 10 9 10 12 13 13 15 16 15 13 12 11 12 12 11 11 10 9 9 11 12 12
32 31 29 27 25 26 25 27 28 27 28 28 30 30 28 27 26 24 23 21 18 16 15 16 17 18 18 18 18 15 14 16 17 17 17 17 17 16 15 14 15 15 14 14 13 13 14 15 17 18 20 22 22 22 22 21 20 17 16 14 13 12 9 7 8 10 11 12 11 12 15 15 13 12 11 10 10 9 9 9 9 11 13 13 12
31 30 30 27 25 26 24 26 28 27 27 28 30 30 29 28 27 25 24 22 19 17 16 15 16 17 16 17 19 18 15 14 16 16 15 15 16 15 14 14 14 14 13 13 13 13 14 15 17 17 19 21 22 22 22 20 18 16 15 14 12 11 9 7 10 11 11 11 11 11 12 13 13 12 10 8 8 7 9 11 11 13 13 12 10
29 28 30 28 25 25 24 25 27 26 27 28 30 31 29 28 27 26 25 23 21 18 16 15 16 16 15 16 18 18 17 15 15 16 15 15 14 15 14 13 13 13 13 12 13 13 13 14 16 17 19 21 21 21 21 19 17 16 15 13 13 12 11 10 11 11 10 10 10 10 9 9 10 10 9 9 9 8 10 12 13 12 10 9 8
27 27 29 28 25 25 24 25 26 26 26 27 29 31 29 28 27 26 26 23 22 20 18 16 16 16 15 15 16 17 18 17 16 16 15 15 14 14 14 13 12 12 13 12 12 13 13 13 14 15 17 18 20 20 19 18 15 14 14 13 13 14 13 11 11 11 10 9 8 9 8 8 9 8 8 9 9 9 10 11 11 10 8 8 7
25 26 28 28 25 25 24 24 25 25 26 26 28 30 29 28 27 26 26 25 23 21 19 17 15 16 15 15 16 16 17 17 17 17 15 14 13 13 13 13 13 12 13 12 12 13 12 13 13 13 14 14 16 19 18 16 15 14 14 13 14 14 13 11 11 11 9 7 6 7 7 7 8 8 7 8 8 8 9 9 9 8 6 6 6
23 24 26 27 26 24 24 25 25 25 25 25 27 28 29 28 27 26 25 25 25 22 20 18 16 15 14 15 16 16 16 15 16 17 17 15 13 13 12 11 12 11 12 12 12 13 12 13 12 11 12 12 13 16 18 16 15 15 14 13 13 14 13 11 11 10 8 6 6 6 6 5 6 7 7 8 7 8 8 7 8 7 6 5 5
21 22 24 26 26 24 24 24 25 25 24 25 27 27 29 28 27 26 24 25 25 24 22 19 17 15 14 15 16 16 15 15 15 16 17 16 15 14 13 12 11 10 11 11 11 12 13 13 12 11 11 12 12 13 16 16 15 15 13 12 12 13 12 11 11 10 8 7 6 5 5 4 4 5 6 7 6 6 5 5 6 6 5 4 3
20 19 22 25 25 23 22 23 24 24 24 25 26 27 27 27 27 26 25 24 24 25 23 20 19 16 15 15 15 15 15 14 14 14 14 16 17 16 15 14 12 11 10 11 10 11 12 13 12 11 11 11 11 10 12 14 14 14 13 12 11 11 11 10 9 8 8 7 6 5 5 5 4 4 5 5 5 4 2 2 3 4 3 3 3
20 19 20 22 23 22 21 21 22 23 24 26 26 27 26 26 27 27 26 25 24 24 24 22 20 18 16 15 15 15 14 13 12 12 12 13 15 16 16 16 14 13 11 10 9 10 10 11 12 12 12 11 11 9 10 11 13 14 13 12 11 10 9 9 8 7 6 6 5 5 5 5 5 4 5 5 5 5 4 2 1 2 1 2 2
21 20 20 21 22 22 22 21 20 20 23 26 26 26 25 25 26 27 26 25 24 24 24 23 21 20 17 16 15 15 13 12 12 11 10 11 13 15 16 16 15 14 13 11 10 10 9 10 11 12 12 12 12 12 13 12 11 12 12 11 11 10 8 7 6 5 5 4 4 5 5 5 5 5 5 5 5 5 6 5 4 4 3 4 4
22 21 22 22 23 23 23 22 22 21 21 22 23 24 24 24 24 26 27 26 25 25 24 23 22 21 19 17 16 16 14 12 12 11 9 9 11 13 15 15 15 15 14 12 11 11 10 11 13 14 13 14 14 14 14 12 10 10 10 11 11 10 9 7 5 4 4 3 2 2 4 5 6 6 6 6 5 5 6 6 6 6 6 7 7
22 22 23 23 23 24 25 24 25 24 22 22 22 23 24 24 24 25 27 27 26 25 23 23 23 22 21 20 17 16 16 14 13 12 10 9 10 12 13 15 14 15 15 12 11 11 11 11 12 14 14 15 14 13 12 11 10 9 9 10 11 10 10 9 5 4 3 3 2 1 2 4 6 7 6 7 6 5 6 6 6 7 7 8 8
22 22 22 23 24 26 26 27 27 27 25 24 23 23 24 24 24 24 25 26 25 25 24 24 23 22 22 21 20 17 16 17 15 13 12 9 9 10 12 14 14 14 15 13 11 12 12 12 12 12 13 14 13 12 11 9 9 9 10 10 10 10 10 10 7 5 5 4 3 2 2 2 4 5 6 7 7 7 7 7 7 7 7 8 8
18 20 22 22 24 26 26 27 28 28 27 25 25 24 24 24 24 24 25 25 24 24 24 24 23 23 23 22 21 20 18 18 17 16 14 11 9 10 11 13 15 14 15 15 13 12 11 11 11 11 12 13 14 13 12 10 9 10 10 10 10 10 10 11 9 8 7 6 5 5 4 4 4 5 5 6 7 8 9 8 7 7 7 8 8
8 14 19 21 22 24 25 27 28 28 27 26 25 26 25 25 25 24 25 25 23 23 22 22 22 23 24 23 22 21 20 19 19 18 15 13 11 10 10 12 15 16 16 16 15 13 12 11 11 11 12 13 14 14 13 12 11 10 10 10 10 10 11 11 10 10 9 7 6 7 6 6 7 7 7 8 9 10 10 9 8 8 7 7 7
5 7 13 20 21 22 24 26 28 28 27 26 26 26 26 26 25 24 25 25 23 23 22 22 22 22 23 24 24 23 23 21 20 19 17 16 14 12 11 11 15 17 16 16 17 16 15 14 13 13 12 12 13 13 14 13 12 12 11 11 11 11 12 12 11 11 10 9 9 9 8 7 8 8 9 10 11 12 11 10 9 9 9 9 9
7 5 7 16 21 21 22 24 26 28 28 26 26 26 26 26 25 25 25 25 24 24 23 23 23 23 24 24 25 25 24 23 22 21 20 18 17 15 14 13 15 18 17 17 17 18 17 17 15 15 14 14 14 14 14 14 13 12 12 12 12 13 13 14 13 13 12 11 11 11 11 9 9 9 10 11 12 13 13 13 12 12 12 12 11
8 7 7 12 19 22 21 22 24 26 28 28 27 26 27 27 27 27 27 27 26 25 24 24 24 23 24 25 26 26 25 25 25 24 22 21 20 18 16 15 16 18 18 17 17 17 17 17 16 16 15 15 15 15 15 15 13 12 13 12 13 14 15 16 16 15 14 13 13 13 13 12 11 11 11 12 13 13 14 15 15 15 15 15 14
9 8 7 9 14 21 22 21 23 24 26 26 27 27 27 28 28 28 28 27 27 26 25 25 25 25 25 25 26 27 27 27 27 26 25 24 23 21 19 17 17 18 18 17 17 16 15 15 14 13 13 13 14 15 16 15 13 12 12 12 13 14 16 17 17 17 16 15 15 15 15 15 15 14 14 14 15 15 15 15 17 17 17 17 15
12 9 9 10 11 17 22 22 23 24 25 26 27 28 28 27 27 28 28 28 28 27 27 26 26 26 26 26 26 28 29 29 28 27 28 26 24 23 21 19 18 18 18 17 17 16 15 14 13 12 11 11 11 12 13 12 11 11 12 12 13 14 15 17 18 19 19 18 18 17 18 18 18 18 18 17 17 17 16 16 17 18 18 16 14
13 11 10 12 10 11 17 21 24 23 23 26 28 27 27 27 26 27 28 28 28 28 28 28 27 28 28 28 27 28 30 30 30 29 29 27 26 25 23 22 20 19 18 18 17 16 16 15 14 14 12 12 12 12 12 11 10 11 12 13 14 14 15 16 18 19 20 20 19 19 20 21 21 21 20 19 19 17 16 16 18 18 17 16 14
11 11 10 10 9 10 12 15 22 23 20 21 26 28 26 27 26 26 26 27 28 29 29 30 29 29 30 30 30 29 30 30 30 30 29 28 27 28 27 25 22 20 19 18 18 18 17 17 16 15 14 13 13 13 12 11 10 10 12 14 14 13 13 14 16 16 17 17 17 16 17 18 18 18 18 17 16 15 15 16 18 18 18 16 15
11 12 12 9 8 12 12 12 16 20 20 18 21 25 24 25 26 25 25 27 27 29 31 31 31 31 31 31 31 30 30 31 31 30 30 29 29 30 30 28 25 23 20 19 19 18 17 17 16 15 14 14 13 13 13 12 11 10 11 13 14 14 12 12 12 13 13 13 13 13 12 13 13 13 13 13 13 12 13 14 16 18 18 17 17
13 13 13 12 10 11 14 14 13 13 18 19 17 19 21 23 26 26 25 26 27 29 31 32 32 32 32 32 32 31 30 31 31 30 30 31 31 31 32 31 29 25 21 20 20 18 17 17 15 14 14 14 14 15 14 13 11 11 11 11 12 13 13 11 12 12 13 13 13 12 11 11 11 11 11 11 11 10 10 11 13 15 16 16 16
14 13 12 13 11 10 12 14 14 13 14 18 18 19 19 21 24 26 27 26 26 27 28 30 32 32 32 32 32 31 31 31 31 30 31 32 32 33 34 34 31 27 22 20 20 19 18 18 17 16 16 16 16 16 15 14 13 12 12 11 11 12 12 12 13 13 14 15 14 13 12 11 11 11 11 11 11 10 9 9 9 10 12 13 13
14 12 12 13 11 9 11 11 13 15 14 15 19 21 20 20 19 21 25 27 25 25 26 28 29 32 33 33 32 31 32 32 30 29 30 32 33 33 34 34 32 27 23 22 21 21 20 19 19 18 19 19 19 18 16 16 14 13 12 12 13 13 13 14 14 14 15 15 15 14 13 13 12 12 11 11 11 10 9 9 9 9 10 10 11
14 12 13 13 12 10 10 10 10 13 14 15 17 19 19 20 19 17 18 24 27 26 26 27 27 29 30 31 32 32 33 33 32 31 30 31 31 30 29 31 31 27 25 24 23 23 22 21 20 19 20 21 21 19 17 17 15 15 14 14 15 15 15 16 16 15 15 15 16 16 15 15 15 14 14 13 12 11 11 11 11 11 11 11 11
16 15 12 11 12 12 10 9 8 9 11 13 15 14 13 14 19 21 19 19 23 25 25 27 27 26 27 29 30 31 32 32 31 32 32 31 29 28 30 31 31 29 28 26 25 24 24 23 22 20 20 21 21 19 18 17 17 17 16 16 16 16 17 18 16 15 14 15 17 17 16 17 16 16 16 15 15 14 14 13 13 13 13 14 13
15 16 14 10 9 10 10 8 7 7 8 10 12 11 10 10 11 18 23 20 18 18 20 22 25 26 27 27 28 29 31 30 30 30 32 32 28 29 32 32 30 31 30 28 26 27 26 26 25 23 21 22 21 20 19 18 18 17 17 17 18 19 20 18 17 16 15 16 17 17 18 18 18 18 18 17 17 17 16 16 15 15 15 16 16
15 16 15 14 10 8 8 6 6 5 6 8 9 8 8 10 7 8 17 21 19 17 17 17 19 22 24 25 26 27 28 28 27 28 29 30 28 28 31 31 30 32 32 30 29 28 28 28 27 25 23 23 23 22 21 20 19 19 20 20 21 20 20 19 19 19 19 19 18 18 19 19 19 19 19 19 19 19 18 17 16 16 16 16 17
12 15 15 15 14 11 9 8 7 7 6 7 8 9 9 9 9 7 10 15 19 19 20 19 17 17 19 21 24 25 27 27 25 25 27 28 28 29 30 30 30 32 33 32 31 30 29 29 28 27 26 25 24 23 21 20 19 19 20 20 19 19 19 19 21 21 21 21 20 20 20 21 21 21 21 21 20 20 19 18 17 17 16 15 15
10 11 13 14 15 15 14 13 13 12 11 10 9 10 11 11 10 10 11 13 13 13 16 19 19 18 18 18 20 22 26 28 27 25 26 28 28 28 29 29 30 30 32 34 34 33 32 31 30 29 27 25 24 22 19 18 18 18 19 19 18 18 19 20 21 22 22 21 21 21 21 22 23 23 23 22 21 21 20 18 17 17 16 15 15
10 9 10 11 12 12 13 13 14 15 16 15 13 12 12 12 11 11 13 13 12 11 10 12 15 18 19 21 20 20 22 26 29 28 28 30 30 29 29 30 30 29 30 33 34 34 33 32 32 30 27 25 24 23 20 17 16 16 15 17 19 20 20 21 22 22 22 21 21 21 23 24 25 26 24 23 23 23 21 19 18 17 16 15 14
10 10 10 10 11 11 12 13 13 14 16 17 18 17 16 15 14 13 14 14 13 13 13 11 10 12 16 21 23 22 23 23 26 29 29 30 31 31 30 31 31 30 30 31 32 32 33 32 32 29 27 26 25 23 21 18 15 13 9 8 12 17 19 20 22 23 22 22 22 23 24 25 27 27 26 25 24 22 20 19 18 17 15 14 13
10 11 11 11 11 12 13 14 15 15 16 17 19 20 20 19 18 16 14 15 15 15 16 15 14 13 14 18 22 26 27 24 22 25 28 30 31 32 33 32 32 32 32 32 33 33 32 33 32 30 26 24 24 23 23 22 17 11 6 2 4 6 8 10 14 18 20 21 23 25 27 28 29 29 28 27 24 22 21 19 18 16 14 13 11
9 10 12 13 14 14 15 15 16 16 16 17 18 19 20 20 20 19 17 17 17 16 18 18 18 17 17 18 20 22 24 22 22 25 27 27 29 30 33 35 34 34 34 34 34 34 33 33 32 30 26 23 22 22 23 25 21 12 4 1 2 1 2 3 5 9 11 13 17 20 23 27 29 29 28 27 23 21 20 20 18 15 13 11 9
10 10 11 12 13 14 15 15 15 15 15 16 17 17 18 18 18 18 17 17 16 16 17 19 20 20 20 20 19 19 20 21 25 30 29 28 29 29 30 34 34 33 34 34 34 33 33 33 31 29 27 23 21 19 19 21 22 18 10 4 2 1 2 1 4 5 7 8 10 12 15 18 22 25 23 22 21 21 21 20 17 15 13 12 11
12 12 12 11 12 12 13 14 14 13 13 14 15 16 16 17 17 15 15 15 15 16 18 20 21 23 22 22 21 20 21 22 26 30 31 29 30 29 27 28 28 27 29 30 31 31 32 32 31 29 26 22 19 16 14 14 14 15 13 10 7 4 2 0 1 2 5 6 9 10 9 9 10 12 12 12 13 14 15 15 13 10 7 6 7
14 14 14 13 12 12 12 12 13 13 12 13 14 15 14 15 16 16 16 16 17 18 19 20 21 23 23 22 21 22 22 23 24 25 28 28 26 24 22 20 19 21 24 24 24 26 26 26 25 24 21 19 18 15 14 12 9 6 7 9 7 4 2 2 2 1 2 3 8 13 13 13 11 7 4 2 0 2 3 1 4 4 7 9 10
22 23 23 22 20 18 16 13 11 12 12 13 13 13 13 14 16 17 17 18 18 19 18 19 20 21 22 22 22 23 23 23 23 23 25 24 24 25 21 18 20 21 19 17 17 18 19 19 18 19 18 18 19 18 16 15 12 9 7 7 6 6 5 5 4 3 2 0 5 9 13 16 18 19 16 12 10 9 8 9 10 13 16 16 16
32 32 31 29 28 26 23 20 19 19 18 17 16 15 13 14 15 17 17 17 17 18 18 18 19 19 20 20 21 23 24 24 24 24 25 24 25 26 23 21 23 21 16 13 13 14 15 16 16 18 21 21 20 19 18 17 16 13 12 11 9 9 8 7 7 7 5 3 1 3 6 11 17 22 21 18 17 16 15 17 18 19 20 19 19
37 37 35 34 32 31 29 26 26 25 23 22 21 19 16 15 15 16 17 18 17 16 16 17 18 19 19 19 20 22 24 24 24 24 25 25 25 25 23 23 25 22 17 13 14 16 17 17 17 17 20 21 19 18 17 15 14 13 13 12 12 11 7 5 7 8 6 5 3 1 2 5 9 16 21 20 19 18 19 20 21 20 19 18 18
38 39 38 36 35 35 33 30 29 28 27 26 24 22 20 17 16 15 16 17 17 17 17 17 17 18 19 20 21 22 24 25 25 25 25 26 26 25 24 25 27 24 19 17 20 23 23 22 18 15 15 16 16 16 14 13 12 11 11 12 12 10 7 5 7 7 5 4 4 2 2 5 6 10 17 19 18 17 17 18 19 19 18 17 17
Wind_Direction
170 167 164 160 160 161 161 160 158 157 155 155 155 151 149 147 144 142 140 139 137 133 129 127 129 131 131 131 130 129 131 129 127 126 127 130 129 132 133 133 138 139 137 137 138 136 131 129 130 135 138 135 132 129 127 126 125 121 116 115 112 113 114 110 109 110 106 102 101 101 101 100 98 97 95 95 98 101 99 95 94 92 89 88 87
169 168 166 162 162 162 163 162 161 159 156 157 157 155 152 150 147 144 142 142 142 138 132 128 128 130 131 133 133 130 132 132 131 131 129 129 129 131 133 136 139 142 143 143 142 137 131 128 131 134 136 136 134 131 128 124 120 116 117 120 119 118 116 113 114 113 108 104 104 103 102 101 100 98 96 94 94 97 100 96 93 91 90 91 88
167 169 167 165 163 163 164 164 164 162 159 158 159 158 155 152 149 147 143 145 147 144 136 130 128 130 130 131 132 131 133 133 132 134 134 132 133 134 136 139 140 143 146 146 144 137 131 133 136 134 137 137 132 129 125 119 114 111 112 112 112 113 114 114 117 116 113 112 111 109 106 103 101 99 98 97 93 92 96 96 93 91 91 90 86
170 171 169 167 164 164 165 165 166 165 162 160 161 161 157 154 151 149 145 145 149 148 140 132 131 131 130 130 131 132 133 135 132 132 136 135 135 136 139 141 142 143 144 143 140 137 137 141 139 138 138 134 129 126 122 117 113 110 108 106 105 106 107 107 108 111 116 118 118 114 109 106 104 103 101 99 97 94 94 94 92 90 91 89 85
172 174 172 169 166 166 167 167 168 167 164 161 163 163 160 156 153 152 147 146 148 149 145 138 137 133 130 128 128 131 131 133 133 132 134 135 135 136 137 137 137 137 139 141 139 140 143 145 141 141 139 131 127 126 123 118 114 112 109 107 105 104 101 99 98 100 107 113 117 113 108 109 106 103 102 103 100 98 100 96 92 93 93 90 88
173 176 174 171 169 168 169 169 169 168 165 163 165 165 163 159 155 154 150 149 148 147 147 143 140 137 134 129 125 127 128 127 130 131 131 132 132 133 133 132 133 136 140 142 143 144 146 146 142 140 137 131 130 129 125 118 114 112 110 108 105 100 96 94 94 93 95 100 109 110 110 110 105 101 98 98 94 92 98 97 94 96 96 92 91
174 176 176 172 171 172 171 172 170 169 167 165 167 167 165 162 158 156 153 150 150 147 147 146 142 142 141 133 127 125 127 126 128 130 130 132 131 131 131 132 134 137 139 139 140 142 143 144 142 142 138 133 133 131 125 118 116 113 110 108 104 99 95 92 88 86 88 90 101 106 106 103 101 100 89 87 91 91 93 94 95 96 94 91 92
173 176 178 173 174 176 173 173 172 171 168 167 168 168 168 166 162 159 157 152 151 150 150 148 143 148 148 140 134 129 129 129 132 132 132 134 132 132 131 131 129 130 131 133 137 139 140 139 142 145 140 135 134 131 125 120 118 115 113 111 107 102 95 92 92 92 91 87 92 103 105 101 97 97 92 87 98 103 97 99 99 99 98 92 89
171 175 178 176 177 177 176 174 173 173 170 168 169 170 170 168 166 163 160 155 153 153 153 152 146 149 150 145 140 135 133 132 135 137 138 139 137 136 134 130 124 124 127 129 133 137 139 139 144 146 140 138 137 133 127 123 121 119 118 114 109 100 90 97 118 116 104 91 86 98 106 110 108 106 105 100 112 117 104 107 104 99 98 92 86
172 176 178 178 178 178 179 176 174 175 171 170 171 172 172 170 170 167 164 159 155 156 156 155 149 146 145 146 144 140 140 137 138 141 142 141 141 140 137 135 129 127 126 127 131 133 139 142 147 148 143 143 142 137 131 128 126 125 122 116 108 98 98 114 125 121 109 96 86 88 99 114 121 116 112 112 121 116 94 94 95 94 92 91 91
172 177 180 179 179 179 180 178 176 176 173 172 173 174 174 173 173 171 168 164 159 159 159 158 152 144 144 147 146 145 146 145 143 143 145 143 143 143 139 139 137 133 127 127 129 131 139 144 149 152 149 148 148 141 134 133 132 131 128 121 114 110 116 125 123 121 112 99 89 87 94 110 117 115 116 118 115 106 95 89 87 89 91 93 96
172 177 180 179 179 181 180 180 179 179 176 174 175 176 176 175 177 175 173 170 165 163 162 163 158 147 146 149 148 149 149 150 151 149 148 147 147 146 144 143 141 139 134 132 132 133 140 143 149 156 152 149 151 149 141 138 139 139 135 129 126 122 123 128 125 125 119 104 95 92 96 101 105 111 113 112 107 103 96 91 91 94 101 103 104
171 177 180 181 181 182 181 182 181 180 178 176 176 176 178 179 180 179 177 176 171 168 167 169 167 154 149 152 150 151 153 153 154 153 151 151 151 149 149 148 144 146 145 142 142 141 140 142 147 157 155 150 155 157 151 147 149 148 143 138 135 130 127 130 130 129 126 117 110 102 102 101 101 110 111 108 107 109 100 101 116 122 125 117 113
168 176 180 183 183 183 184 184 183 182 180 179 177 177 180 182 183 183 180 180 177 173 171 173 172 161 156 157 152 151 156 158 157 155 156 156 155 155 156 156 155 156 157 155 152 149 145 143 147 155 156 157 161 161 158 157 160 158 152 144 140 138 134 135 135 135 138 136 130 119 117 113 107 112 115 110 102 111 116 120 135 141 140 127 115
163 172 180 186 184 183 185 185 184 183 184 182 179 179 183 184 185 186 184 183 181 178 175 177 176 169 165 162 156 153 154 159 160 159 160 160 160 165 165 162 164 164 166 168 164 162 159 151 150 156 159 164 169 168 164 165 168 167 160 150 146 147 145 143 140 141 146 145 142 139 138 132 122 125 122 115 98 102 122 126 129 137 142 143 144
162 163 175 185 185 184 187 187 185 184 185 184 183 182 184 187 188 189 188 186 185 183 180 181 180 177 175 169 164 159 155 158 163 165 166 165 165 169 171 169 169 170 172 174 173 173 170 162 160 162 163 166 171 175 169 170 175 175 170 159 153 152 157 159 154 152 155 155 154 156 162 157 149 148 146 139 123 121 141 125 123 140 143 153 169
167 160 167 180 185 186 189 190 187 186 186 184 185 185 186 189 192 192 192 191 189 186 184 185 185 184 183 179 174 168 164 161 163 168 170 171 170 169 171 175 173 174 180 182 181 176 174 168 167 170 170 169 171 172 172 177 180 180 178 169 163 159 161 171 171 165 165 171 171 175 185 176 168 176 178 172 161 165 187 191 195 195 181 199 202
171 167 166 174 183 187 190 193 192 192 190 187 185 184 188 190 193 194 194 194 193 191 187 187 190 190 191 189 184 178 175 172 169 169 172 174 174 174 173 175 175 176 182 188 186 178 175 169 170 178 176 174 176 180 185 187 182 181 184 181 180 175 169 173 174 166 167 177 186 200 208 181 174 194 194 192 190 187 204 216 218 227 243 240 232
174 174 173 175 182 186 190 194 196 195 193 192 188 185 190 192 193 196 196 197 196 195 190 190 193 195 197 197 193 186 184 185 183 178 175 177 176 180 180 178 178 178 181 185 188 188 183 176 178 182 182 183 184 190 194 188 184 183 188 192 193 190 182 178 172 168 168 164 172 214 220 195 190 206 204 209 217 211 223 232 233 234 243 248 250
177 179 179 181 184 187 189 193 196 196 195 194 192 191 193 194 195 198 199 199 200 199 195 194 195 198 202 202 201 194 192 194 197 192 184 184 181 183 186 187 189 183 183 185 187 193 194 188 187 188 191 194 193 200 201 190 190 189 192 198 195 193 189 186 180 178 172 148 136 138 205 201 203 214 219 223 224 226 238 245 248 245 249 253 257
175 182 184 185 187 190 191 194 195 195 195 195 196 194 193 195 197 198 199 200 200 201 199 197 195 199 203 205 205 201 200 199 201 202 193 190 187 187 189 194 198 189 187 190 186 189 195 195 196 197 199 201 201 208 209 200 199 198 200 199 194 192 192 195 192 188 192 181 183 204 219 218 215 225 233 235 234 238 246 249 252 250 253 256 258
173 181 185 188 190 193 196 196 196 195 196 197 198 195 194 197 197 197 199 199 197 198 199 198 198 201 204 205 206 206 206 205 204 205 199 195 195 194 191 194 200 196 191 192 190 190 195 197 199 200 198 200 203 205 208 204 203 203 202 199 196 194 194 198 197 194 203 209 220 232 241 247 243 247 254 257 259 256 251 251 253 254 255 256 257
179 181 184 191 193 197 199 199 197 197 197 198 199 198 197 198 198 200 201 198 194 196 200 202 204 206 205 205 207 209 209 210 208 207 204 199 200 201 197 194 198 201 198 195 195 195 198 199 199 200 198 199 200 201 203 204 203 203 202 200 199 196 196 199 199 201 208 217 233 237 240 251 255 263 271 277 280 274 263 255 255 260 260 258 258
214 197 188 191 196 200 202 201 199 198 199 199 200 200 200 200 199 201 202 200 197 199 203 206 208 209 209 207 206 210 212 213 211 208 208 204 202 200 199 196 196 203 204 200 198 198 200 200 201 204 205 205 205 206 207 208 207 208 208 206 203 199 200 204 205 210 215 222 236 240 240 247 256 266 275 281 284 283 274 262 260 262 262 261 262
242 237 209 197 198 203 204 202 200 201 201 201 202 203 203 203 202 201 201 203 203 204 204 207 212 212 212 209 206 209 213 215 215 209 206 206 204 199 200 198 197 204 207 206 203 202 206 207 210 217 220 221 220 219 217 214 210 212 215 214 213 208 206 210 212 218 223 227 236 242 245 245 251 261 270 276 278 280 275 267 264 265 265 264 264
249 238 231 213 203 203 205 204 203 204 205 206 208 209 208 207 206 204 204 205 207 209 208 208 212 214 215 213 209 211 213 216 216 211 208 206 205 204 203 201 200 204 208 208 206 205 208 211 217 226 230 231 229 228 226 220 214 216 219 220 222 218 216 217 219 223 226 229 234 242 247 247 249 256 263 270 273 276 274 267 264 264 266 266 266
255 236 230 229 213 205 204 204 205 207 209 211 212 212 211 211 211 210 209 208 209 211 213 212 213 216 218 218 214 212 213 217 214 210 212 208 205 208 206 204 204 205 208 207 206 206 206 209 215 221 227 230 229 226 224 219 214 217 222 225 227 226 224 224 226 228 230 231 235 241 246 247 250 255 259 264 270 274 274 269 264 263 265 267 268
266 248 232 227 220 212 209 206 205 206 209 212 214 214 213 213 213 214 214 213 212 212 215 215 216 217 219 220 220 216 216 220 217 213 214 209 206 210 209 208 208 207 208 207 206 203 198 199 200 202 204 205 205 203 202 201 207 220 227 230 231 230 229 228 230 232 234 236 238 242 244 247 251 255 258 261 266 271 272 269 267 267 266 267 268
268 255 240 224 225 229 223 217 211 208 210 210 211 215 215 215 214 214 217 218 218 218 218 217 217 218 220 221 221 221 220 220 219 217 215 211 209 211 211 211 211 209 208 205 202 196 190 188 187 189 188 184 182 180 183 190 204 224 233 234 234 235 235 236 237 238 240 241 242 244 246 248 252 254 256 259 263 266 268 267 265 266 266 267 267
266 254 241 227 229 240 240 231 223 223 224 214 211 214 214 214 215 215 217 221 223 225 223 221 218 216 219 221 221 224 224 222 219 218 218 218 215 213 212 212 211 209 208 205 197 191 189 185 183 188 189 189 189 186 191 199 207 225 236 237 237 240 242 242 242 243 244 242 241 243 246 248 249 251 254 257 260 263 265 265 263 261 261 263 265
260 251 244 233 232 237 239 240 235 236 236 223 213 219 223 218 216 215 219 224 226 228 228 226 223 219 217 218 220 222 226 227 224 221 219 220 218 215 213 212 210 208 208 206 197 192 192 189 187 189 192 197 198 197 201 205 213 231 239 237 238 241 242 242 240 239 238 235 233 235 240 244 245 248 250 253 258 265 269 269 265 260 259 261 264
254 252 250 240 242 245 240 241 246 244 231 223 211 215 225 224 221 220 223 228 230 231 229 226 224 221 219 219 221 221 224 228 230 229 224 218 218 219 216 212 209 207 207 205 201 197 196 196 196 196 198 201 204 204 204 210 226 239 241 240 245 244 241 244 245 244 240 234 231 233 237 242 246 251 254 257 261 268 275 276 272 265 262 263 266
254 252 251 244 244 240 236 239 246 248 230 223 216 208 214 218 220 224 225 228 231 232 229 226 224 222 221 223 225 223 222 226 229 230 225 219 220 221 218 214 209 206 206 204 203 202 202 204 204 206 208 206 206 206 207 219 234 241 244 247 256 256 250 252 255 255 249 240 236 237 239 244 249 256 262 266 266 266 269 275 278 273 269 268 269
250 248 244 242 243 232 230 237 244 248 240 230 222 217 220 217 214 219 222 224 226 227 227 226 225 224 225 227 227 224 223 225 225 224 220 218 219 218 216 215 212 207 205 204 203 205 208 212 213 214 213 209 208 209 215 225 231 235 242 248 258 261 256 255 257 256 249 241 240 242 243 245 250 257 264 270 270 265 263 269 275 277 276 275 273
238 240 239 236 236 232 232 237 240 243 245 246 235 227 230 226 222 222 218 219 221 223 224 225 226 225 225 226 227 226 225 226 226 226 223 219 216 216 216 217 215 210 208 206 205 209 213 217 220 214 206 205 209 213 221 229 230 233 238 245 255 262 263 262 258 250 245 241 242 245 245 248 251 256 261 265 267 266 264 267 271 275 276 278 276
234 235 240 234 226 223 226 228 228 235 242 248 247 241 241 236 235 237 231 217 215 218 219 221 225 226 226 226 226 228 229 229 229 229 226 221 219 221 221 217 215 213 211 209 210 213 213 214 213 210 202 201 208 215 223 228 230 233 236 241 249 259 267 269 261 249 246 247 248 249 248 249 251 255 259 261 264 266 266 266 269 272 275 277 276
236 236 240 241 222 208 209 212 219 235 243 244 247 247 245 244 242 240 235 225 217 215 215 217 218 219 223 226 228 229 230 231 230 228 224 223 225 224 220 217 216 215 212 209 211 214 212 208 207 211 210 206 209 215 220 224 230 235 239 243 250 258 264 266 263 256 253 253 253 252 250 251 252 254 257 260 263 266 267 266 269 272 276 278 277
236 237 238 241 232 209 201 208 223 238 252 249 246 243 241 243 245 242 236 236 237 227 218 219 216 217 220 223 228 230 230 229 230 228 224 225 226 222 218 217 215 215 213 210 211 214 212 210 210 214 216 216 217 219 223 227 233 241 247 250 254 260 264 265 265 263 260 258 256 254 253 253 254 255 258 261 265 268 268 266 267 270 275 279 280
235 239 239 239 238 234 228 231 241 251 264 262 252 246 246 244 238 233 231 238 246 237 227 226 221 219 222 225 228 229 230 229 228 228 225 223 221 219 219 217 214 214 213 211 212 213 212 214 215 217 219 222 225 228 231 235 238 245 251 254 256 260 264 266 267 266 265 264 262 260 258 255 255 257 261 264 266 269 270 268 267 269 274 279 281
236 240 244 244 244 246 250 252 255 262 269 269 260 248 244 245 238 232 230 227 234 237 233 236 236 230 225 227 228 227 228 228 227 226 224 220 218 218 218 216 214 214 213 212 211 212 213 215 216 218 220 221 227 231 233 235 239 245 250 253 258 261 263 265 266 266 267 268 267 266 262 260 260 260 262 265 267 270 271 269 268 270 273 274 275
245 240 245 252 257 259 263 266 266 264 262 260 257 250 240 238 236 237 242 236 226 222 223 236 251 252 239 231 229 227 227 226 225 225 223 221 218 218 217 214 213 212 212 211 210 213 215 216 216 217 219 219 222 226 227 230 235 241 248 255 261 264 265 265 266 265 264 264 265 265 264 265 266 265 265 265 267 269 270 268 267 270 272 270 270
258 250 250 256 264 269 275 282 283 271 259 253 250 249 246 242 244 248 255 258 246 231 224 223 237 256 253 243 239 239 238 230 223 223 223 222 220 218 216 214 213 212 213 212 211 214 215 215 214 213 216 218 222 225 221 218 223 229 237 263 274 273 269 263 262 263 263 263 263 264 266 266 267 268 269 268 267 268 268 268 268 271 271 268 266
267 261 258 259 263 268 275 282 285 281 268 254 245 245 248 250 253 257 261 266 262 248 239 236 233 235 245 249 249 248 244 238 232 228 224 222 221 220 217 215 214 213 213 213 212 214 214 213 213 213 213 215 221 225 218 213 212 211 217 256 278 289 284 267 263 263 264 266 266 267 267 267 268 270 270 270 269 266 266 267 266 266 266 265 258
295 283 274 269 268 270 276 283 286 286 279 266 252 245 247 248 248 252 256 258 258 253 245 245 244 235 232 238 246 249 241 239 244 238 232 230 226 224 221 216 217 215 213 212 211 211 211 210 212 214 212 209 214 217 216 216 212 201 186 196 198 227 285 298 307 285 273 273 276 277 276 274 272 271 271 271 269 265 265 264 258 255 253 250 241
324 320 310 298 290 285 285 290 293 291 286 278 267 255 249 245 242 242 244 243 243 245 242 240 239 234 229 230 237 240 233 236 243 239 237 239 234 233 226 215 214 213 212 213 211 210 211 211 213 214 212 209 206 205 207 213 215 213 208 197 184 186 223 316 354 316 295 301 311 310 300 291 281 274 272 270 264 262 263 256 245 244 243 232 220
339 341 338 329 315 307 300 295 295 298 297 292 282 269 256 248 242 234 229 229 228 230 231 231 232 231 230 229 229 231 230 234 240 237 236 236 235 236 227 213 209 206 207 210 210 209 210 209 210 211 211 212 205 192 182 192 206 217 219 221 228 229 211 76 25 308 308 333 1 6 355 343 314 284 274 267 261 264 266 253 233 229 227 198 176
9 11 7 2 349 333 320 309 302 302 307 306 295 282 267 255 248 241 235 232 231 231 231 231 234 235 232 229 226 225 226 228 232 232 230 229 227 221 216 216 217 212 209 209 208 210 210 208 208 209 212 213 206 185 163 168 176 182 205 212 211 200 178 173 181 208 299 349 32 44 50 50 49 50 48 56 61 340 331 230 165 116 95 104 112
24 24 21 17 13 9 1 354 347 340 335 329 318 302 284 268 259 253 247 242 240 242 242 238 237 238 236 231 225 220 219 218 218 218 217 220 220 211 210 225 228 221 215 210 211 214 215 214 212 210 208 204 200 187 168 170 171 160 162 165 157 149 142 143 154 151 152 104 25 41 56 62 61 57 53 60 69 60 57 77 87 82 84 89 91
26 25 24 21 17 15 12 10 9 5 0 355 346 334 313 290 273 265 260 256 252 251 251 246 241 241 241 237 231 224 219 214 210 206 204 210 216 214 215 217 211 206 204 206 216 211 201 199 196 194 193 191 193 191 179 176 179 173 166 164 161 154 141 132 132 123 116 124 96 5 34 51 53 48 43 48 60 66 71 82 88 88 87 80 75
27 27 26 24 21 17 12 9 8 5 2 359 354 347 336 318 293 278 271 268 265 259 256 251 246 245 244 242 238 233 228 220 212 206 202 201 204 208 212 208 198 195 196 209 226 215 194 184 179 175 176 174 175 178 173 169 176 176 172 171 167 162 152 140 138 125 104 100 121 194 27 60 58 49 49 57 66 74 80 85 85 83 79 71 64
23 24 24 22 21 18 14 11 8 5 1 356 353 348 342 332 315 295 282 276 271 264 259 256 252 249 247 245 242 239 235 230 225 216 206 199 195 197 205 209 204 202 211 231 236 219 199 188 181 172 167 161 158 162 159 156 162 165 169 176 175 176 178 168 160 149 137 127 128 171 140 101 95 72 70 74 76 79 82 79 76 73 69 64 57